This is the latest recevied weather packets stored in our database for station/object N2OCK. If no packets are shown the sender has not sent any weather packets the latest 10 day(s).
| Time | Temp. | Humidity | Pressure | Rain* | Wind** | Luminosity | Snow |
|---|---|---|---|---|---|---|---|
| 1777854793 | 10.56° C | 44% | 1011.6 hPa | 0 mm | - | 0 W/m² | - |
| 1777854490 | 10.56° C | 43% | 1011.4 hPa | 0 mm | - | 0 W/m² | - |
| 1777854187 | 10.56° C | 42% | 1011.2 hPa | 0 mm | - | 0 W/m² | - |
| 1777853884 | 11.11° C | 41% | 1011.2 hPa | 0 mm | - | 0 W/m² | - |
| 1777853581 | 11.11° C | 42% | 1011.3 hPa | 0 mm | - | 0 W/m² | - |
| 1777853278 | 11.11° C | 41% | 1011.1 hPa | 0 mm | - | 0 W/m² | - |
| 1777852975 | 11.67° C | 39% | 1010.8 hPa | 0 mm | - | 1 W/m² | - |
| 1777852673 | 11.67° C | 38% | 1011.1 hPa | 0 mm | - | 1 W/m² | - |
| 1777852370 | 12.22° C | 37% | 1010.9 hPa | 0 mm | - | 3 W/m² | - |
| 1777852067 | 12.78° C | 35% | 1011 hPa | 0 mm | - | 5 W/m² | - |
| 1777851765 | 12.78° C | 35% | 1011 hPa | 0 mm | - | 7 W/m² | - |
| 1777851462 | 13.33° C | 34% | 1010.9 hPa | 0 mm | - | 10 W/m² | - |
| 1777851158 | 13.33° C | 34% | 1010.7 hPa | 0 mm | - | 13 W/m² | - |
| 1777850855 | 13.89° C | 32% | 1010.7 hPa | 0 mm | - | 18 W/m² | - |
| 1777850552 | 13.89° C | 33% | 1010.6 hPa | 0 mm | - | 21 W/m² | - |
| 1777850250 | 14.44° C | 31% | 1010.5 hPa | 0 mm | - | 26 W/m² | - |
| 1777849947 | 14.44° C | 31% | 1010.4 hPa | 0 mm | - | 31 W/m² | - |
| 1777849642 | 14.44° C | 32% | 1010.4 hPa | 0 mm | - | 34 W/m² | - |
| 1777849340 | 14.44° C | 31% | 1010.3 hPa | 0 mm | - | 44 W/m² | - |
| 1777849032 | 15° C | 30% | 1010.2 hPa | 0 mm | - | 51 W/m² | - |
| 1777848732 | 15° C | 30% | 1010.4 hPa | 0 mm | - | 60 W/m² | - |
| 1777848430 | 15° C | 30% | 1010.4 hPa | 0 mm | - | 70 W/m² | - |
| 1777848127 | 15° C | 30% | 1010.4 hPa | 0 mm | - | 79 W/m² | - |
| 1777847825 | 15° C | 29% | 1010.3 hPa | 0 mm | - | 90 W/m² | - |
| 1777847522 | 15° C | 29% | 1010.2 hPa | 0 mm | - | 101 W/m² | - |
* Rain latest hour (hover to see other rain measurements)
** Current wind speed in m/s (hover to see current wind gust speed)